FLOCK 2K-23

Last updated on Wed Feb 14 2018 16:20:52 GMT+0000 (Coordinated Universal Time)

1 42859U 17042AL 18045.19659167 .00007200 00000-0 20969-3 0 9992 2 42859 96.9928 307.9887 0009985 188.1570 171.9514 15.35629354 32754

Satellite not in orbit

FLOCK 2K-23